Time,TemperatureF,DewpointF,PressureIn,WindDirection,WindDirectionDegrees,WindSpeedMPH,WindSpeedGustMPH,Humidity,HourlyPrecipIn,Conditions,Clouds,dailyrainin,SoftwareType,DateUTC
2013-09-27 00:24:00,54.0,53.0,30.08,NNE,14,1.0,4.0,95,0.00,,,0.00,,2013-09-27 04:24:00,
2013-09-27 00:44:00,55.0,53.0,30.08,NNE,13,0.0,8.0,93,0.00,,,0.00,,2013-09-27 04:44:00,
2013-09-27 00:54:00,57.0,54.0,30.08,North,358,0.0,9.0,89,0.00,,,0.00,,2013-09-27 04:54:00,
2013-09-27 01:13:00,57.0,53.0,30.08,North,3,1.0,10.0,88,0.00,,,0.00,,2013-09-27 05:13:00,
2013-09-27 01:23:00,57.0,53.0,30.08,North,3,1.0,10.0,88,0.00,,,0.00,,2013-09-27 05:23:00,
2013-09-27 01:52:00,58.0,53.0,30.08,NNE,29,2.0,9.0,84,0.00,,,0.00,,2013-09-27 05:52:00,
2013-09-27 02:12:00,58.0,53.0,30.08,NNE,26,1.0,8.0,84,0.00,,,0.00,,2013-09-27 06:12:00,
2013-09-27 02:22:00,58.0,53.0,30.08,NNE,26,1.0,8.0,84,0.00,,,0.00,,2013-09-27 06:22:00,
2013-09-27 02:43:00,58.0,53.0,30.08,NNE,18,2.0,8.0,83,0.00,,,0.00,,2013-09-27 06:43:00,
2013-09-27 02:52:00,58.0,53.0,30.08,NNE,30,1.0,10.0,82,0.00,,,0.00,,2013-09-27 06:52:00,
2013-09-27 03:12:00,58.0,52.0,30.08,NNE,20,1.0,9.0,81,0.00,,,0.00,,2013-09-27 07:12:00,
2013-09-27 03:22:00,58.0,52.0,30.08,NNE,20,1.0,9.0,81,0.00,,,0.00,,2013-09-27 07:22:00,
2013-09-27 03:43:00,58.0,53.0,30.07,North,2,1.0,11.0,83,0.00,,,0.00,,2013-09-27 07:43:00,
2013-09-27 03:53:00,59.0,54.0,30.08,NNE,13,3.0,11.0,84,0.00,,,0.00,,2013-09-27 07:53:00,
2013-09-27 04:02:00,59.0,54.0,30.08,NNE,13,3.0,11.0,84,0.00,,,0.00,,2013-09-27 08:02:00,
2013-09-27 04:12:00,59.0,54.0,30.08,NNE,13,3.0,11.0,84,0.00,,,0.00,,2013-09-27 08:12:00,
2013-09-27 04:22:00,59.0,55.0,30.08,North,6,3.0,10.0,86,0.00,,,0.00,,2013-09-27 08:22:00,
2013-09-27 04:42:00,58.0,53.0,30.08,NNE,13,2.0,9.0,84,0.00,,,0.00,,2013-09-27 08:42:00,
2013-09-27 04:52:00,58.0,54.0,30.09,NNE,24,2.0,13.0,85,0.00,,,0.00,,2013-09-27 08:52:00,
2013-09-27 05:02:00,58.0,54.0,30.09,NNE,24,2.0,13.0,85,0.00,,,0.00,,2013-09-27 09:02:00,
2013-09-27 05:12:00,58.0,54.0,30.09,NNE,24,2.0,13.0,85,0.00,,,0.00,,2013-09-27 09:12:00,
2013-09-27 05:22:00,58.0,54.0,30.09,NNE,25,4.0,13.0,85,0.00,,,0.00,,2013-09-27 09:22:00,
2013-09-27 05:33:00,58.0,54.0,30.09,NNE,25,4.0,13.0,85,0.00,,,0.00,,2013-09-27 09:33:00,
2013-09-27 05:54:00,58.0,54.0,30.10,NNE,29,2.0,11.0,86,0.00,,,0.00,,2013-09-27 09:54:00,
2013-09-27 06:13:00,58.0,54.0,30.10,NNE,12,3.0,12.0,85,0.00,,,0.00,,2013-09-27 10:13:00,
2013-09-27 06:23:00,58.0,54.0,30.11,North,358,3.0,12.0,86,0.00,,,0.00,,2013-09-27 10:23:00,
2013-09-27 06:53:00,58.0,54.0,30.11,NNE,20,3.0,12.0,86,0.00,,,0.00,,2013-09-27 10:53:00,
2013-09-27 07:12:00,58.0,54.0,30.11,NE,41,3.0,11.0,86,0.00,,,0.00,,2013-09-27 11:12:00,
2013-09-27 07:22:00,58.0,54.0,30.12,NNE,24,4.0,13.0,86,0.00,,,0.00,,2013-09-27 11:22:00,
2013-09-27 07:52:00,58.0,54.0,30.12,NNW,344,3.0,12.0,87,0.00,,,0.00,,2013-09-27 11:52:00,
2013-09-27 08:12:00,59.0,55.0,30.13,NNE,32,3.0,16.0,86,0.00,,,0.00,,2013-09-27 12:12:00,
2013-09-27 08:21:00,59.0,55.0,30.14,NNE,17,5.0,13.0,86,0.00,,,0.00,,2013-09-27 12:21:00,
2013-09-27 08:51:00,59.0,55.0,30.15,NE,38,3.0,12.0,86,0.00,,,0.00,,2013-09-27 12:51:00,
2013-09-27 08:52:00,59.0,55.0,30.14,NNW,333,1.0,10.0,86,0.00,,,0.00,,2013-09-27 12:52:00,
2013-09-27 09:11:00,59.0,55.0,30.15,NNE,28,2.0,10.0,86,0.00,,,0.00,,2013-09-27 13:11:00,
2013-09-27 09:22:00,59.0,55.0,30.15,NE,38,3.0,12.0,86,0.00,,,0.00,,2013-09-27 13:22:00,
2013-09-27 09:32:00,59.0,55.0,30.15,NE,38,3.0,12.0,86,0.00,,,0.00,,2013-09-27 13:32:00,
2013-09-27 10:11:00,60.0,55.0,30.16,North,11,2.0,11.0,85,0.00,,,0.00,,2013-09-27 14:11:00,
2013-09-27 10:22:00,60.0,55.0,30.16,NNE,24,6.0,14.0,84,0.00,,,0.00,,2013-09-27 14:22:00,
2013-09-27 10:42:00,61.0,56.0,30.16,NNW,345,4.0,15.0,84,0.00,,,0.00,,2013-09-27 14:42:00,
2013-09-27 10:52:00,61.0,56.0,30.16,NNW,345,4.0,15.0,84,0.00,,,0.00,,2013-09-27 14:52:00,
2013-09-27 11:22:00,62.0,56.0,30.16,North,353,5.0,15.0,81,0.00,,,0.00,,2013-09-27 15:22:00,
2013-09-27 11:33:00,62.0,56.0,30.16,North,353,5.0,15.0,81,0.00,,,0.00,,2013-09-27 15:33:00,
2013-09-27 11:54:00,62.0,55.0,30.17,North,357,6.0,19.0,79,0.00,,,0.00,,2013-09-27 15:54:00,
2013-09-27 12:04:00,62.0,55.0,30.17,North,357,6.0,19.0,79,0.00,,,0.00,,2013-09-27 16:04:00,
2013-09-27 12:13:00,62.0,55.0,30.17,North,357,6.0,19.0,79,0.00,,,0.00,,2013-09-27 16:13:00,
2013-09-27 12:24:00,61.0,55.0,30.17,NNE,20,7.0,16.0,81,0.00,,,0.00,,2013-09-27 16:24:00,
2013-09-27 12:53:00,60.0,54.0,30.18,NNE,12,7.0,18.0,81,0.00,,,0.00,,2013-09-27 16:53:00,
2013-09-27 13:13:00,60.0,54.0,30.18,NNE,24,4.0,14.0,81,0.00,,,0.00,,2013-09-27 17:13:00,
2013-09-27 13:23:00,60.0,53.0,30.17,North,6,4.0,13.0,79,0.00,,,0.00,,2013-09-27 17:23:00,
2013-09-27 13:52:00,60.0,53.0,30.17,NNE,31,5.0,14.0,79,0.00,,,0.00,,2013-09-27 17:52:00,
2013-09-27 14:11:00,59.0,54.0,30.16,NNE,14,6.0,15.0,82,0.00,,,0.00,,2013-09-27 18:11:00,
2013-09-27 14:13:00,60.0,53.0,30.17,NNE,26,5.0,14.0,79,0.00,,,0.00,,2013-09-27 18:13:00,
2013-09-27 14:22:00,59.0,54.0,30.16,North,9,6.0,15.0,82,0.00,,,0.00,,2013-09-27 18:22:00,
2013-09-27 14:43:00,59.0,54.0,30.16,NNE,14,6.0,15.0,82,0.00,,,0.00,,2013-09-27 18:43:00,
2013-09-27 14:52:00,59.0,54.0,30.16,NNE,14,6.0,15.0,82,0.00,,,0.00,,2013-09-27 18:52:00,
2013-09-27 15:02:00,59.0,54.0,30.16,NNE,14,6.0,15.0,82,0.00,,,0.00,,2013-09-27 19:02:00,
2013-09-27 15:23:00,60.0,54.0,30.16,North,10,6.0,13.0,80,0.00,,,0.00,,2013-09-27 19:23:00,
2013-09-27 15:32:00,60.0,54.0,30.16,North,10,6.0,13.0,80,0.00,,,0.00,,2013-09-27 19:32:00,
2013-09-27 15:53:00,60.0,54.0,30.16,NNE,22,6.0,16.0,81,0.00,,,0.00,,2013-09-27 19:53:00,
2013-09-27 16:03:00,60.0,54.0,30.16,NNE,22,6.0,16.0,81,0.00,,,0.00,,2013-09-27 20:03:00,
2013-09-27 16:12:00,60.0,54.0,30.16,NNE,22,6.0,16.0,81,0.00,,,0.00,,2013-09-27 20:12:00,
2013-09-27 16:22:00,60.0,53.0,30.16,NNE,15,6.0,12.0,78,0.00,,,0.00,,2013-09-27 20:22:00,
2013-09-27 16:32:00,60.0,53.0,30.16,NNE,15,6.0,12.0,78,0.00,,,0.00,,2013-09-27 20:32:00,
2013-09-27 16:43:00,60.0,53.0,30.16,NNE,15,6.0,12.0,78,0.00,,,0.00,,2013-09-27 20:43:00,
2013-09-27 16:52:00,60.0,52.0,30.16,North,2,4.0,17.0,76,0.00,,,0.00,,2013-09-27 20:52:00,
2013-09-27 17:12:00,60.0,52.0,30.16,NNE,16,2.0,12.0,76,0.00,,,0.00,,2013-09-27 21:12:00,
2013-09-27 17:22:00,60.0,54.0,30.16,North,359,3.0,12.0,80,0.00,,,0.00,,2013-09-27 21:22:00,
2013-09-27 17:44:00,60.0,54.0,30.16,North,2,5.0,14.0,81,0.00,,,0.00,,2013-09-27 21:44:00,
2013-09-27 17:54:00,60.0,55.0,30.17,North,10,3.0,11.0,83,0.00,,,0.00,,2013-09-27 21:54:00,
2013-09-27 18:04:00,60.0,55.0,30.17,North,10,3.0,11.0,83,0.00,,,0.00,,2013-09-27 22:04:00,
2013-09-27 18:14:00,60.0,55.0,30.17,North,10,3.0,11.0,83,0.00,,,0.00,,2013-09-27 22:14:00,
2013-09-27 18:24:00,60.0,55.0,30.17,North,10,3.0,11.0,83,0.00,,,0.00,,2013-09-27 22:24:00,
2013-09-27 18:54:00,58.0,54.0,30.17,North,4,0.0,12.0,85,0.00,,,0.00,,2013-09-27 22:54:00,
2013-09-27 19:11:00,58.0,54.0,30.18,North,1,1.0,7.0,86,0.00,,,0.00,,2013-09-27 23:11:00,
2013-09-27 19:22:00,58.0,54.0,30.18,NNE,15,1.0,7.0,86,0.00,,,0.00,,2013-09-27 23:22:00,
2013-09-27 19:43:00,58.0,54.0,30.18,North,1,1.0,7.0,86,0.00,,,0.00,,2013-09-27 23:43:00,
2013-09-27 19:53:00,58.0,54.0,30.18,North,1,1.0,7.0,86,0.00,,,0.00,,2013-09-27 23:53:00,
2013-09-27 20:02:00,58.0,54.0,30.18,North,1,1.0,7.0,86,0.00,,,0.00,,2013-09-28 00:02:00,
2013-09-27 20:22:00,57.0,53.0,30.19,NNE,22,1.0,7.0,86,0.00,,,0.00,,2013-09-28 00:22:00,
2013-09-27 20:32:00,57.0,53.0,30.19,NNE,22,1.0,7.0,86,0.00,,,0.00,,2013-09-28 00:32:00,
2013-09-27 20:42:00,57.0,53.0,30.19,NNE,22,1.0,7.0,86,0.00,,,0.00,,2013-09-28 00:42:00,
2013-09-27 20:52:00,57.0,53.0,30.20,North,354,0.0,6.0,87,0.00,,,0.00,,2013-09-28 00:52:00,
2013-09-27 21:22:00,57.0,53.0,30.20,NNE,20,0.0,1.0,87,0.00,,,0.00,,2013-09-28 01:22:00,
2013-09-27 21:32:00,57.0,53.0,30.20,NNE,20,0.0,1.0,87,0.00,,,0.00,,2013-09-28 01:32:00,
2013-09-27 21:42:00,57.0,53.0,30.20,NNE,20,0.0,1.0,87,0.00,,,0.00,,2013-09-28 01:42:00,
2013-09-27 21:52:00,55.0,52.0,30.21,NNE,20,0.0,0.0,90,0.00,,,0.00,,2013-09-28 01:52:00,
2013-09-27 22:03:00,55.0,52.0,30.21,NNE,20,0.0,0.0,90,0.00,,,0.00,,2013-09-28 02:03:00,
2013-09-27 22:12:00,55.0,52.0,30.21,NNE,20,0.0,0.0,90,0.00,,,0.00,,2013-09-28 02:12:00,
2013-09-27 22:22:00,54.0,52.0,30.22,NNE,20,0.0,1.0,92,0.00,,,0.00,,2013-09-28 02:22:00,
2013-09-27 22:53:00,53.0,51.0,30.22,NNE,20,0.0,0.0,94,0.00,,,0.00,,2013-09-28 02:53:00,
2013-09-27 23:03:00,53.0,51.0,30.22,NNE,20,0.0,0.0,94,0.00,,,0.00,,2013-09-28 03:03:00,
2013-09-27 23:12:00,53.0,51.0,30.22,NNE,20,0.0,0.0,94,0.00,,,0.00,,2013-09-28 03:12:00,
2013-09-27 23:22:00,52.0,50.0,30.23,NNE,20,0.0,0.0,94,0.00,,,0.00,,2013-09-28 03:22:00,
2013-09-27 23:55:00,52.0,51.0,30.22,NNE,20,0.0,0.0,95,0.00,,,0.00,,2013-09-28 03:55:00,